This is the latest recevied weather packets stored in our database for station/object KE4EST. If no packets are shown the sender has not sent any weather packets the latest 10 day(s).
| Time | Temp. | Humidity | Pressure | Rain* | Wind** | Luminosity | Snow |
|---|---|---|---|---|---|---|---|
| 1777745970 | 17.78° C | 36% | 1013.2 hPa | 0 mm | - | 705 W/m² | - |
| 1777745668 | 17.78° C | 36% | 1013.1 hPa | 0 mm | - | 710 W/m² | - |
| 1777745366 | 17.22° C | 36% | 1013.2 hPa | 0 mm | - | 718 W/m² | - |
| 1777745063 | 17.78° C | 36% | 1013.3 hPa | 0 mm | - | 736 W/m² | - |
| 1777744759 | 16.67° C | 40% | 1013.4 hPa | 0 mm | - | 702 W/m² | - |
| 1777744454 | 17.22° C | 40% | 1013.4 hPa | 0 mm | - | 518 W/m² | - |
| 1777744151 | 16.67° C | 40% | 1013.4 hPa | 0 mm | - | 656 W/m² | - |
| 1777743848 | 17.22° C | 40% | 1013.5 hPa | 0 mm | - | 708 W/m² | - |
| 1777743545 | 17.22° C | 42% | 1013.2 hPa | 0 mm | - | 710 W/m² | - |
| 1777743242 | 17.78° C | 41% | 1013.3 hPa | 0 mm | - | 705 W/m² | - |
| 1777742941 | 16.67° C | 43% | 1013.2 hPa | 0 mm | - | 703 W/m² | - |
| 1777742637 | 16.67° C | 45% | 1013.3 hPa | 0 mm | - | 664 W/m² | - |
| 1777742332 | 17.22° C | 44% | 1013.3 hPa | 0 mm | - | 448 W/m² | - |
| 1777742029 | 17.22° C | 44% | 1013.4 hPa | 0 mm | - | 479 W/m² | - |
| 1777741726 | 17.78° C | 48% | 1013.3 hPa | 0 mm | - | 191 W/m² | - |
| 1777741422 | 17.22° C | 45% | 1013.4 hPa | 0 mm | - | 536 W/m² | - |
| 1777741118 | 17.22° C | 48% | 1013.4 hPa | 0 mm | - | 200 W/m² | - |
| 1777740816 | 16.67° C | 46% | 1013.4 hPa | 0 mm | - | 217 W/m² | - |
| 1777740512 | 16.67° C | 47% | 1013.5 hPa | 0 mm | - | 239 W/m² | - |
| 1777740210 | 17.22° C | 47% | 1014.1 hPa | 0 mm | - | 321 W/m² | - |
| 1777739905 | 16.67° C | 50% | 1013.7 hPa | 0 mm | - | 222 W/m² | - |
| 1777739602 | 15.56° C | 51% | 1013.7 hPa | 0 mm | - | 386 W/m² | - |
| 1777739300 | 15.56° C | 52% | 1013.8 hPa | 0 mm | - | 173 W/m² | - |
| 1777738996 | 16.11° C | 55% | 1013.9 hPa | 0 mm | - | 199 W/m² | - |
| 1777738693 | 15.56° C | 60% | 1013.8 hPa | 0 mm | - | 249 W/m² | - |
* Rain latest hour (hover to see other rain measurements)
** Current wind speed in m/s (hover to see current wind gust speed)